THORAD DELTA 1 R/B(2), 9330

Orbit data source: Space-Track

THORAD DELTA 1 R/B(2), 9330 is space debris originally from a launch on Thu, 19 Dec 1974 UTC launched from the Air Force Eastern Test Range (AFETR). Debris objects in space refer to the collection of defunct objects orbiting the Earth. Examples of debris include non-operational satellites, rocket bodies, and fragments generated from explosions, collisions, or faulty payload assembly.

Loading next visibility...
THORAD DELTA 1 R/B(2) details
Identifier
9330, 1974-101G
Orbit
Molniya
Last TLE update19 hours ago
Origin
Flag of USGSFC (US)
ManufacturerThiokol/TE
MissionSpacecraft
Bus & MotorSTAR 37, Unknown motor
Mass~83 kg wet, 83 kg dry
Launch date (UTC)
1974-12-19 (50 years ago)
Launch vehicleUnknown
Launch site
Air Force Eastern Test Range (AFETR)
Object type
Payload
Rocket body
Debris
Shape & HBRDomed Cyl + 1 Nozzle, 1.67 m
Radar Cross Section1.559 m², Large (>1 m²)

Expand to show TLE details & history

TLE from 19 hours ago
0 THORAD DELTA 1 R/B(2)
1 09330U 74101G   24346.54324188  .00000412  00000-0  12274-2 0  9997
2 09330  12.5050 176.8485 7193104 212.7108  68.7556  2.30348094406274
Epoch: 2024-12-11T13:02Z
Definitive object data (Epoch: 2024-12-11T13:02:16.098Z)
Latitude-0.00002°
Longitude-99.50772°
Altitude23,165.007 km
Speed3.244 km/s
True Right ascension11h 47m 10s
True Declination0° 00' 00"
Sunlit
Object was in daylight at TLE epoch
Visualization TLE readout
Latitude-11.07712°
Longitude141.86729°
Altitude792.71 km
Speed9.732 km/s
Apparent Right ascension00h 58m 37s
Apparent Declination-51° 07' 07"
Sunlit
Object is in full shadow
Visualization observer readout
Local Sidereal Time06:24:57
Azimuth223.427° SW
Elevation-25.407°
Doppler factor1
Orbital elements
Apogee altitude35,269.505 km
Perigee altitude421.136 km
Semi-major axis24,223.457 km
Eccentricity0.7193104
Inclination12.505°
RAAN176.8485°
Arg. of periapsis212.7108°
True anomaly147.25736°
Mean anomaly68.7556°
Eccentric anomaly107.96066°
Mean motion0.57569 °/min
BSTAR0.0012274
Orbital period625.34 mins
Loading maneuver chart data...
Loading historical data...
Loading historical data...
Loading historical data...
Loading historical data...
Loading historical data...
Loading historical data...
Loading historical data...

THORAD DELTA 1 R/B(2) Visibility forecast

Observer location: undefined°, undefined

Span
Click to sort rows by Start time (UTC) header in descending order
Start Az.
Max El. time (UTC)
Max El. Az.
Max El.
End time (UTC)
End Az.
538 mins2024-12-12 08:47:22.513Z129.555° SE2024-12-12 16:01:22.513Z141.893° SSE36.651°2024-12-12 17:45:22.513Z110.625° ESE
|